Location: Seattle
(47.6064°N, 122.3308°W)
Time: 11:26:29
(UTC-07:00)

Explorer 7 - Pass Details

Date: 07 August 2021
Orbit: 484 x 676 km, 50.3° (Epoch: 22 September)

Event Time Altitude Azimuth Distance (km) Brightness Sun altitude
Exits shadow 05:01:44 11° 251° (WSW) 1,631 8.6 -8.6°
Maximum altitude 05:05:24 87° 343° (NNW) 499 6.6 -8.1°
Drops below altitude 10° 05:09:17 10° 71° (ENE) 1,721 10.9 -7.5°
Sets 05:11:32 0° 71° (ENE) 2,633 12.1 -7.2°
